Theta_e
309 310 310 310 309 310 311 311 312 313 314 314 314 314 316 318 317 321 323 322 324 333 342 348 346 344 347 347 350 350 349 349 349 350 352 349 350 346 347 348 348 348 345 345 350
308 307 308 308 309 309 310 311 311 312 313 313 313 314 317 318 324 321 320 317 321 332 340 340 336 341 341 345 348 350 349 348 349 349 350 350 350 349 350 349 352 352 348 347 348
308 308 308 307 308 308 309 310 311 312 312 312 313 314 318 318 325 321 321 317 321 328 334 333 333 339 341 340 346 346 347 347 348 349 348 350 350 349 352 351 351 355 351 347 347
308 308 308 308 307 307 308 310 311 311 311 311 312 314 318 326 320 321 320 318 328 338 329 333 338 343 342 341 340 344 342 346 349 349 349 351 350 352 351 352 347 350 348 345 345
308 308 308 308 308 308 308 309 310 311 311 311 312 314 324 323 320 322 322 324 331 338 331 337 340 342 343 340 340 342 342 346 349 349 349 349 350 352 351 348 349 348 345 343 344
307 307 308 308 308 307 307 309 310 311 311 312 312 316 327 321 317 322 325 337 327 331 331 335 340 341 341 340 340 340 345 349 349 350 350 351 352 352 351 349 349 347 344 344 345
309 307 307 308 308 308 308 309 310 311 312 312 313 322 326 322 319 323 323 328 328 324 334 334 335 340 340 340 338 344 348 349 350 350 351 350 354 354 352 351 350 348 347 346 347
313 310 308 307 307 308 308 309 311 313 317 315 316 328 324 319 319 321 322 322 323 325 328 330 332 337 339 338 341 346 346 347 348 348 349 350 351 353 352 353 352 348 347 348 348
318 315 310 310 308 308 309 311 317 318 317 317 327 326 323 320 322 323 323 324 323 325 325 323 329 337 338 341 343 346 347 345 345 343 346 348 347 350 351 353 354 349 347 349 350
321 318 312 310 308 308 313 321 319 320 323 326 326 326 323 324 324 323 324 323 324 324 325 328 333 339 339 341 346 345 345 342 341 339 340 345 346 349 350 353 354 352 349 348 348
322 320 316 310 308 310 320 325 329 330 328 328 325 321 322 326 326 326 323 323 324 326 330 331 336 340 339 338 342 342 343 342 340 338 338 341 342 345 350 351 353 354 352 349 348
323 321 317 309 309 316 318 327 325 323 329 328 329 328 327 326 326 325 322 323 323 324 327 330 335 336 338 338 339 341 343 342 340 339 336 337 340 342 348 350 350 351 352 352 350
323 322 318 309 311 319 320 325 321 321 330 327 327 328 327 327 325 324 323 324 324 324 324 328 330 333 337 339 338 341 343 342 340 337 337 338 338 345 344 348 349 349 349 349 351
323 322 315 308 318 315 324 321 319 320 333 331 327 328 327 329 326 324 323 323 322 323 323 325 328 331 335 337 337 340 341 338 338 337 338 336 337 338 343 347 349 350 349 349 349
323 321 311 308 316 319 322 318 320 323 334 329 326 327 328 327 326 325 321 322 322 322 324 324 326 330 332 332 336 337 337 337 336 337 336 334 336 334 335 336 336 349 346 348 348
322 318 310 314 315 316 316 319 322 334 336 330 326 327 328 326 325 326 322 324 323 322 323 325 325 328 330 330 333 334 333 333 334 335 336 334 333 333 334 334 334 338 341 345 348
323 313 313 315 319 316 318 325 333 337 333 329 326 326 326 326 325 325 325 325 323 322 323 324 325 326 327 330 330 331 332 334 333 332 335 332 333 333 333 332 336 342 344 346 349
322 313 321 318 317 317 321 330 339 334 333 327 327 326 326 326 326 326 327 327 324 323 323 324 325 325 325 327 327 329 329 330 331 334 334 329 328 330 332 332 342 346 348 348 350
315 320 323 323 320 319 329 332 336 333 331 327 327 326 326 325 325 325 325 326 325 323 323 323 325 326 326 326 327 328 328 328 328 329 327 327 328 329 337 342 346 347 351 352 352
315 327 326 320 320 323 330 329 333 331 330 327 327 326 325 326 325 325 326 326 326 325 325 324 326 325 324 324 324 326 329 328 328 327 329 327 327 332 336 343 343 346 347 349 352
318 333 322 320 319 327 328 329 327 329 330 329 326 326 326 326 327 326 327 325 326 325 325 324 326 325 324 326 328 326 327 327 327 327 327 328 330 331 341 343 343 343 345 346 345
320 334 323 320 326 325 328 327 320 331 331 330 329 327 328 332 332 331 329 327 324 325 324 325 326 327 326 326 326 328 329 328 327 331 327 327 329 340 343 342 342 343 343 343 343
328 333 322 322 327 323 326 326 327 332 333 331 331 331 333 336 337 332 328 326 322 325 326 325 326 328 329 330 327 327 328 327 328 327 330 328 331 342 344 350 352 350 347 346 345
329 337 329 326 326 327 327 329 331 330 332 331 332 333 338 340 340 333 331 330 322 325 327 325 326 330 330 332 333 332 329 328 327 329 330 327 332 347 349 354 355 356 355 354 351
329 335 329 333 331 329 329 332 332 335 331 332 333 333 335 339 338 336 334 330 326 331 326 326 331 332 334 334 333 334 332 326 328 329 329 332 332 350 355 357 357 357 358 361 362
328 331 328 331 330 332 325 333 333 335 335 331 332 332 335 340 342 338 335 336 331 327 327 328 335 335 335 335 335 336 334 326 327 330 336 335 343 351 355 353 352 352 353 354 354
314 321 325 326 332 332 331 333 333 333 335 335 336 334 335 339 338 337 337 335 334 331 330 330 334 335 336 335 334 337 338 341 342 343 340 337 352 353 355 352 351 350 349 349 348
Wind_Speed
15 15 15 14 15 15 16 16 16 15 15 16 17 18 19 21 16 7 8 1 6 9 8 7 6 6 6 2 2 2 2 7 9 8 7 9 6 4 4 12 4 3 8 22 25
16 16 15 14 15 15 15 16 15 15 15 15 16 17 17 20 11 10 7 8 8 12 10 9 2 5 3 1 2 4 5 5 4 5 7 8 5 8 6 9 7 9 15 25 26
17 17 16 16 16 15 16 15 15 15 15 15 16 16 15 15 7 3 4 11 11 13 8 6 4 7 3 1 2 3 5 2 4 5 5 9 6 4 7 5 7 14 21 22 23
19 18 17 16 16 16 16 15 15 15 16 16 15 14 13 4 4 4 1 9 15 13 8 6 6 7 2 3 3 4 2 1 4 7 7 8 7 4 2 7 10 16 21 21 19
19 19 19 18 17 16 17 16 15 16 16 14 13 11 5 7 6 3 3 9 15 12 12 8 7 4 2 4 3 5 5 2 4 7 7 7 5 4 4 5 14 18 19 20 19
21 21 20 19 18 18 18 16 16 16 14 12 11 7 5 9 2 3 4 9 17 17 13 9 4 3 5 3 6 6 2 5 6 7 7 4 5 3 6 11 15 19 20 18 17
22 22 22 22 20 19 18 18 17 17 14 12 9 1 8 9 1 5 2 7 13 16 11 8 5 8 2 2 4 0 4 7 6 4 3 3 7 5 13 14 15 18 18 18 18
23 23 23 24 25 21 20 18 17 15 10 7 4 3 6 3 3 8 4 8 10 11 6 5 5 7 6 1 2 5 6 5 5 3 4 7 5 10 14 16 16 18 17 18 19
24 27 25 31 25 21 19 15 6 2 5 7 3 6 3 2 6 6 8 9 13 10 6 4 7 7 6 11 8 7 4 2 6 0 1 7 8 7 13 15 15 17 18 18 19
25 29 30 31 23 20 12 1 7 7 4 2 4 5 6 5 4 5 8 10 10 12 9 9 8 11 12 10 10 6 6 5 1 3 4 8 7 8 13 16 17 17 17 18 20
26 30 33 32 21 14 2 1 5 5 8 6 1 3 3 1 4 8 11 11 8 12 14 14 12 15 17 16 4 6 5 5 2 4 7 5 8 7 13 17 17 17 17 18 19
28 30 36 30 17 4 0 5 4 5 6 10 10 10 9 4 7 11 12 12 11 13 14 10 19 18 18 8 11 10 10 9 1 2 8 8 9 5 12 18 18 18 18 18 17
29 32 37 27 10 1 5 1 1 4 6 6 6 7 5 9 8 15 15 13 12 15 15 18 16 17 10 14 15 14 14 6 6 7 6 9 12 6 5 11 13 18 17 18 18
29 34 36 25 1 4 3 3 8 4 5 7 7 6 8 6 8 8 13 10 7 15 15 14 7 9 18 21 17 18 14 6 7 6 8 6 12 7 6 6 13 14 16 18 19
29 37 33 18 9 4 2 5 2 4 6 7 8 7 7 9 16 8 10 7 9 9 11 12 11 15 18 19 17 17 3 6 6 10 7 14 7 8 7 6 3 9 12 16 20
32 36 28 4 5 6 4 6 4 6 3 7 7 11 14 9 8 9 12 6 2 6 14 3 3 13 15 15 12 10 8 9 8 10 10 15 5 11 4 8 7 3 5 10 17
36 31 11 5 1 2 4 5 6 6 4 9 10 15 16 12 9 13 14 14 9 11 11 13 11 10 9 11 9 12 14 11 11 11 12 4 8 10 14 11 10 9 4 4 12
36 15 5 6 4 4 7 6 6 3 2 4 9 15 12 11 8 10 14 14 8 10 9 13 13 13 13 16 10 15 18 11 11 12 7 4 7 8 5 9 6 3 3 2 9
25 3 3 2 5 4 6 7 2 2 2 8 13 15 10 10 4 10 14 14 14 13 8 12 8 17 7 10 9 11 9 6 10 4 8 9 2 8 4 10 7 7 7 7 7
13 4 1 2 6 7 7 5 1 2 2 7 10 9 13 14 10 9 12 12 11 14 10 5 9 11 8 7 5 7 8 9 8 4 7 3 5 3 8 9 8 7 8 8 6
4 4 4 3 2 6 8 1 2 2 4 6 5 8 11 11 11 11 10 6 15 14 9 4 6 8 9 12 14 7 10 7 5 5 6 4 4 8 9 7 7 7 4 4 3
5 4 4 2 5 3 7 1 2 3 4 5 5 6 9 7 7 7 5 2 7 14 13 8 3 11 9 5 6 9 15 14 7 10 2 7 2 8 8 9 8 8 5 5 1
4 2 5 3 5 8 4 5 4 4 3 3 5 2 2 3 4 4 4 3 10 14 10 9 5 9 10 7 5 9 8 8 6 2 4 8 7 5 9 10 9 8 6 6 3
4 4 4 5 3 6 5 7 4 4 5 3 1 3 6 3 3 7 8 4 9 8 5 5 2 8 6 8 4 6 6 9 12 7 8 7 11 10 8 9 10 10 9 8 5
4 1 5 5 8 6 5 1 6 5 5 4 5 3 4 3 4 5 5 11 7 6 6 9 7 3 6 5 1 3 4 8 11 3 5 10 3 8 8 10 10 10 10 10 9
4 4 3 3 3 7 6 7 4 3 3 8 5 5 2 4 5 7 6 3 4 9 11 7 4 5 5 3 3 4 3 7 6 4 3 3 9 6 7 9 11 10 11 10 9
1 3 4 5 6 7 5 3 4 2 3 2 3 5 7 7 6 5 3 4 3 9 10 9 7 7 6 2 4 8 6 3 4 2 2 6 12 5 7 6 8 7 6 5 5
Wind_Direction
345 341 338 335 330 326 326 326 327 327 330 331 331 332 332 329 326 300 262 194 199 178 149 173 230 240 226 263 273 285 262 64 58 59 105 142 127 108 91 140 94 69 155 135 155
350 347 342 337 331 327 324 323 322 322 325 328 328 330 330 329 315 257 252 216 208 176 188 211 233 257 213 334 182 298 4 38 10 67 102 158 158 142 153 141 122 108 112 138 154
354 348 343 337 332 330 325 320 317 317 321 323 325 328 328 330 276 147 223 214 194 180 240 262 263 273 297 65 26 38 31 353 51 56 112 146 164 151 139 187 140 144 143 152 160
352 349 344 338 332 328 324 318 315 314 316 319 319 326 326 295 215 105 323 185 173 177 216 235 254 258 306 51 30 292 53 334 64 133 133 154 140 156 194 35 132 145 154 157 168
353 350 345 340 334 327 323 317 310 310 311 313 313 326 327 234 253 24 325 194 182 189 215 223 248 278 344 359 310 279 31 45 123 145 132 140 148 57 165 95 131 144 157 165 170
357 352 349 343 335 327 322 316 308 304 303 299 299 317 267 247 92 95 37 160 190 194 204 218 256 322 296 322 324 338 303 112 143 126 146 157 141 198 127 135 144 155 167 171 172
356 353 348 345 336 327 320 313 305 298 293 280 276 285 254 259 225 210 5 180 188 198 207 206 238 244 358 240 351 152 186 143 131 170 139 173 187 212 146 154 159 170 172 175 179
354 351 346 343 333 321 315 311 302 298 284 251 212 233 264 205 242 242 214 176 185 197 239 209 222 263 251 81 218 225 245 190 121 205 118 240 357 131 165 166 171 177 179 178 182
351 349 344 339 334 321 317 308 305 92 106 137 169 249 239 207 215 195 192 175 166 186 186 186 216 242 194 237 200 211 202 220 141 45 302 242 323 128 181 180 181 186 187 188 189
349 348 343 341 333 327 326 14 116 97 119 196 253 240 225 157 147 171 177 178 170 161 167 202 210 219 224 228 232 175 193 191 185 77 284 268 279 147 185 197 193 193 194 197 198
345 345 343 340 333 327 92 167 207 183 211 264 57 304 137 7 165 190 172 176 178 191 201 201 217 218 219 225 322 259 244 220 138 68 306 309 294 189 188 200 203 202 199 203 206
343 342 341 341 332 316 287 262 41 352 281 222 249 264 262 290 189 169 182 190 199 202 210 188 225 222 233 207 226 222 231 217 268 196 302 326 292 215 184 214 212 210 206 205 203
341 341 340 342 328 267 267 58 36 316 254 158 201 232 209 202 202 169 194 202 207 213 205 224 220 226 223 209 226 228 237 232 297 329 232 310 266 144 196 221 226 224 215 212 208
339 340 337 341 311 316 209 185 307 227 255 133 184 167 176 222 173 141 199 192 210 216 212 231 211 212 219 229 224 241 209 255 271 296 295 356 302 263 140 222 227 230 226 216 210
336 337 330 329 298 242 81 316 288 219 214 138 141 132 155 211 130 163 173 194 196 192 203 197 208 209 220 226 218 246 169 258 273 278 279 271 257 292 261 273 7 204 226 222 210
334 334 324 334 223 245 286 310 218 229 149 143 135 173 174 187 166 136 183 224 354 171 217 251 251 225 224 226 215 233 212 228 256 272 271 257 267 289 324 340 324 177 251 242 206
333 330 309 215 52 283 280 215 226 262 147 151 167 170 183 168 151 176 184 191 191 191 195 205 199 201 246 197 205 219 229 241 232 235 250 78 276 281 307 322 352 322 335 208 198
334 328 303 212 256 294 224 226 250 87 165 121 160 176 188 171 193 179 190 199 211 243 188 195 195 199 185 223 196 214 223 230 227 243 254 127 280 281 11 318 15 23 45 157 179
340 310 235 262 239 225 237 223 343 126 98 162 157 169 180 185 227 190 200 208 195 217 229 198 214 176 195 203 249 163 228 273 287 244 271 276 257 261 68 52 64 59 97 118 150
329 264 50 285 168 225 237 276 197 337 275 217 172 200 168 178 195 206 180 205 204 203 256 187 184 192 158 180 200 270 177 203 224 272 270 146 246 48 36 40 40 71 90 103 131
261 237 101 121 214 219 230 253 279 283 239 218 190 175 175 169 214 195 175 142 209 179 209 212 256 143 166 208 186 185 217 237 320 309 297 246 138 53 38 43 54 65 69 107 137
292 225 148 246 214 225 230 225 24 259 198 230 269 169 180 184 202 223 207 240 189 170 192 212 298 163 163 107 291 228 235 217 226 178 245 312 9 60 64 71 64 60 62 70 79
297 317 173 262 233 207 198 241 260 252 197 201 179 234 162 153 191 221 184 73 171 185 178 182 243 138 151 151 157 211 201 244 247 303 168 277 108 82 83 74 65 62 70 83 91
275 211 164 219 277 275 223 219 220 205 259 250 143 186 170 161 189 152 148 109 174 191 355 216 245 309 136 72 102 177 195 222 229 226 157 238 116 83 75 74 74 70 65 59 62
229 130 352 192 207 221 230 276 217 190 213 227 174 217 199 149 146 129 138 136 163 153 197 240 135 128 74 80 138 282 214 194 225 319 272 102 111 81 92 80 69 75 68 55 51
294 307 198 272 202 218 161 194 223 166 251 168 230 157 192 96 21 113 142 212 146 178 203 228 125 166 98 139 214 172 155 182 203 236 207 185 117 85 121 107 94 80 76 74 58
325 258 278 147 196 215 181 166 166 274 162 282 295 191 138 78 38 47 8 91 112 171 172 195 156 214 133 176 218 208 159 147 127 186 317 201 87 139 122 94 90 87 73 53 21